{"data":{"norad_id":64684,"intl_designator":"2025-139W","name":"STARLINK-34485","alt_names":[],"object_type":"PAYLOAD","status":"ACTIVE","operator":null,"country":"US","launch_date":"2025-06-28","launch_site_code":"AFETR","launch_vehicle":null,"mission":null,"orbit_class":"UNKNOWN","rcs_meters":null,"size_class":null,"mass_kg":null,"dimensions":null,"purposes":["comms"],"wikipedia_slug":null,"has_3d_model":false,"image_url":null,"decayed_at":null,"tle_current":{"epoch":"2026-05-24T06:12:10.734912Z","epoch_age_seconds":149331,"freshness":"FRESH","line1":"1 64684U 25139W   26144.25845758  .00021474  00000+0  64498-3 0  9990","line2":"2 64684  53.1573 135.3441 0001051  63.5474 296.5637 15.34393955 51866","mean_motion":15.34393955,"eccentricity":0.0001051,"inclination_deg":53.1573,"raan_deg":135.3441,"arg_perigee_deg":63.5474,"mean_anomaly_deg":296.5637,"bstar":0.00064498,"rev_number":5186,"period_min":93.848127810175,"perigee_km":462.00223308243,"apogee_km":463.4401814776,"semimajor_km":6840.85820728,"source":"CELESTRAK","updated_at":"2026-05-25T13:38:20.507578Z"}}}